[Date Prev][Date Next][Thread Prev][Thread Next] - [Date Index][Thread Index][Author Index]

2 Line ISS Keps 4-12



ISS
1 25544U 98067A   02102.49915509  .00015304  00000-0  18649-3 0  2916
2 25544  51.6390  22.9604 0003104  24.0420 320.8785 15.60707474193781


----
Via the sarex mailing list at AMSAT.ORG courtesy of AMSAT-NA.
To unsubscribe, send "unsubscribe sarex" to Majordomo@amsat.org



AMSAT Top AMSAT Home